Norman, Oklahoma, United States (73019)
Lat: 35.22N, Lon: 97.44W
Wx Zone: OKZ029
Local Info
Past Weather Observations for Today

NOTE: This archive is for the closest National Weather Service station to Norman. Information may differ from the station used for current weather conditions.

Click here for Long-term Archive

Time Weather Temperature Dewpoint Humidity Pressure Winds Precip Visibility
09:35
Clear
55°F / 13°C 43°F / 6°C 63% 30.09 in
(1019 mb)
SW 8.1 mph
(SW 13 kph)
- 10SM
09:15
Clear
55°F / 13°C 43°F / 6°C 63% 30.09 in
(1019 mb)
S 4.6 mph
(S 7 kph)
- 10SM
08:55
Clear
54°F / 12°C 43°F / 6°C 67% 30.06 in
(1018 mb)
S 9.2 mph
(S 15 kph)
- 10SM
08:35
Clear
52°F / 11°C 41°F / 5°C 67% 30.06 in
(1018 mb)
S 8.1 mph
(S 13 kph)
- 10SM
08:15
Clear
50°F / 10°C 41°F / 5°C 71% 30.06 in
(1018 mb)
S 12.7 mph
(S 20 kph)
- 10SM
07:55
Clear
48°F / 9°C 41°F / 5°C 76% 30.06 in
(1018 mb)
S 11.5 mph
(S 19 kph)
- 10SM
07:35
Clear
46°F / 8°C 39°F / 4°C 76% 30.06 in
(1018 mb)
S 6.9 mph
(S 11 kph)
- 10SM
07:15
Clear
46°F / 8°C 41°F / 5°C 82% 30.06 in
(1018 mb)
S 6.9 mph
(S 11 kph)
- 10SM
06:55
Clear
45°F / 7°C 39°F / 4°C 81% 30.06 in
(1018 mb)
SSE 3.5 mph
(SSE 6 kph)
- 10SM
06:35
Clear
45°F / 7°C 39°F / 4°C 81% 30.04 in
(1017 mb)
S 6.9 mph
(S 11 kph)
- 10SM
06:15
Clear
45°F / 7°C 39°F / 4°C 81% 30.04 in
(1017 mb)
SSE 10.4 mph
(SSE 17 kph)
- 10SM
05:55
Clear
45°F / 7°C 37°F / 3°C 76% 30.04 in
(1017 mb)
SSE 6.9 mph
(SSE 11 kph)
- 10SM
05:35
Clear
45°F / 7°C 39°F / 4°C 81% 30.04 in
(1017 mb)
S 6.9 mph
(S 11 kph)
- 10SM
05:15
Clear
45°F / 7°C 39°F / 4°C 81% 30.04 in
(1017 mb)
SSE 6.9 mph
(SSE 11 kph)
- 10SM
04:55
Clear
45°F / 7°C 37°F / 3°C 76% 30.04 in
(1017 mb)
SW 10.4 mph
(SW 17 kph)
- 10SM
04:35
Clear
45°F / 7°C 37°F / 3°C 76% 30.04 in
(1017 mb)
SSE 10.4 mph
(SSE 17 kph)
- 10SM
04:15
Clear
45°F / 7°C 37°F / 3°C 76% 30.04 in
(1017 mb)
SSE 13.8 mph
(SSE 22 kph)
- 10SM
03:55
Partly Cloudy
45°F / 7°C 37°F / 3°C 76% 30.04 in
(1017 mb)
SSE 12.7 mph
(SSE 20 kph)
- 10SM
03:35
Partly Cloudy
46°F / 8°C 37°F / 3°C 71% 30.06 in
(1018 mb)
S 13.8 mph
(S 22 kph)
- 10SM
03:15
Clear
45°F / 7°C 37°F / 3°C 76% 30.06 in
(1018 mb)
S 10.4 mph
(S 17 kph)
- 10SM
02:55
Partly Cloudy
45°F / 7°C 37°F / 3°C 76% 30.06 in
(1018 mb)
S 12.7 mph
(S 20 kph)
- 10SM
02:35
Partly Cloudy
45°F / 7°C 37°F / 3°C 76% 30.06 in
(1018 mb)
S 11.5 mph
(S 19 kph)
- 10SM
02:15
Partly Cloudy
45°F / 7°C 37°F / 3°C 76% 30.06 in
(1018 mb)
S 11.5 mph
(S 19 kph)
- 10SM
01:55
Partly Cloudy
45°F / 7°C 37°F / 3°C 76% 30.06 in
(1018 mb)
S 10.4 mph
(S 17 kph)
- 10SM
01:35
Clear
45°F / 7°C 37°F / 3°C 76% 30.06 in
(1018 mb)
S 9.2 mph
(S 15 kph)
- 10SM
01:15
Clear
45°F / 7°C 37°F / 3°C 76% 30.09 in
(1019 mb)
S 6.9 mph
(S 11 kph)
- 10SM
00:55
Clear
45°F / 7°C 37°F / 3°C 76% 30.09 in
(1019 mb)
S 4.6 mph
(S 7 kph)
- 10SM
00:35
Clear
43°F / 6°C 37°F / 3°C 81% 30.09 in
(1019 mb)
S 6.9 mph
(S 11 kph)
- 10SM
00:15
Clear
45°F / 7°C 37°F / 3°C 76% 30.09 in
(1019 mb)
S 8.1 mph
(S 13 kph)
- 10SM
Time Weather Temperature Dewpoint Humidity Pressure Winds Precip Visibility


Weather for websites

WeatherForYou.com, LLC is not responsible for any damages or problems caused by this service. Current weather conditions are obtained from the closest station including government and personal stations which may have varying degrees of accuracy. Weather forecasts are derived from the NOAA NDFD. Like all things, this site belongs to Jesus Christ... He just trusts me to maintain it. If you have any questions or comments email webmaster@weatherforyou.com

Copyright © 2015, WeatherForYou.com LLC. All rights reserved.